GW5292 Weather Reports


time (UTC)temp
C
wind
direction
speed
KPH
gust
KPH
rain 1hr
cm
rain 24hr
cm
rain mn
cm
humidity
%
barometer
mb
20260508060017 10 258 0.0 6.4 0.00 0.03 0.00 72 1012.0
20260508054538 10 360 0.0 4.8 0.00 0.03 0.00 70 1011.6
20260508053008 10 299 1.6 8.0 0.00 0.05 0.00 67 1011.3
20260508051513 11 313 3.2 14.5 0.00 0.10 0.00 66 1011.1
20260508050018 10 11 1.6 3.2 0.00 0.10 0.00 68 1011.1
20260508044522 11 185 0.0 0.0 0.00 0.13 0.00 72 1009.9
20260508043025 11 185 0.0 3.2 0.00 0.13 0.00 66 1009.9
20260508041508 11 185 0.0 3.2 0.00 0.13 0.00 67 1009.9
20260508040035 11 185 0.0 3.2 0.00 0.13 0.00 74 1009.9
20260508034520 11 277 0.0 0.0 0.00 0.13 0.13 75 1009.4
20260508033024 11 277 0.0 3.2 0.00 0.13 0.13 73 1009.3
20260508031531 11 277 0.0 3.2 0.00 0.13 0.13 75 1009.2
20260508030013 11 277 0.0 3.2 0.00 0.13 0.13 73 1009.2
20260508024513 11 277 0.0 3.2 0.00 0.13 0.13 69 1009.2
20260508023008 11 333 1.6 3.2 0.00 0.13 0.13 67 1009.2
20260508021502 11 248 0.0 0.0 0.00 0.13 0.13 73 1009.0
20260508020006 11 248 0.0 0.0 0.00 0.13 0.13 73 1009.0
20260508014514 11 248 0.0 0.0 0.00 0.13 0.13 71 1008.9
20260508013003 11 248 0.0 0.0 0.00 0.13 0.13 68 1008.7
20260508011503 12 248 0.0 0.0 0.00 0.13 0.13 64 1008.7
20260508010005 12 248 0.0 0.0 0.00 0.13 0.13 68 1008.5
20260508004510 12 248 0.0 0.0 0.00 0.13 0.13 66 1008.4
20260508003018 12 248 0.0 0.0 0.00 0.13 0.13 61 1008.3
20260508001505 13 248 0.0 0.0 0.00 0.13 0.13 56 1008.2
20260508000003 13 248 0.0 0.0 0.00 0.13 0.13 53 1008.1
20260507234504 14 248 0.0 3.2 0.00 0.18 0.13 47 1008.0
20260507233014 15 248 0.0 0.0 0.00 0.30 0.13 42 1007.8
20260507231513 15 248 0.0 0.0 0.00 0.53 0.13 44 1007.8
20260507230011 16 248 0.0 3.2 0.00 0.56 0.13 46 1007.8
20260507224507 16 192 0.0 3.2 0.00 0.56 0.13 44 1007.7
20260507223011 16 192 0.0 3.2 0.00 0.56 0.13 42 1007.8
20260507221518 16 326 0.0 4.8 0.00 0.56 0.13 36 1007.8
20260507220029 16 11 3.2 8.0 0.00 0.56 0.13 36 1007.9
20260507214503 17 348 0.0 3.2 0.00 0.56 0.13 39 1007.9
20260507213010 17 13 3.2 8.0 0.00 0.56 0.13 35 1007.9
20260507211511 17 360 0.0 4.8 0.00 0.56 0.13 37 1007.9
20260507210025 18 34 0.0 4.8 0.00 0.56 0.13 36 1007.9
20260507204524 17 161 1.6 8.0 0.00 0.56 0.13 36 1007.9
20260507203003 17 164 1.6 6.4 0.00 0.56 0.13 38 1007.9
20260507201509 18 119 3.2 8.0 0.00 0.56 0.13 39 1007.9
20260507200015 17 360 4.8 11.3 0.00 0.56 0.13 38 1008.0
20260507194530 17 85 1.6 6.4 0.00 0.56 0.13 37 1008.4
20260507193023 17 174 1.6 4.8 0.00 0.56 0.13 38 1008.5
20260507191508 17 9 1.6 9.7 0.00 0.56 0.13 37 1008.7
20260507190013 17 48 1.6 3.2 0.00 0.56 0.13 1008.9
20260507184521 17 159 1.6 8.0 0.00 0.56 0.13 37 1008.9
20260507183023 17 105 1.6 4.8 0.00 0.56 0.13 38 1009.0
20260507181528 17 270 1.6 4.8 0.00 0.56 0.13 39 1009.2
20260507180015 17 110 1.6 6.4 0.00 0.56 0.13 38 1009.2
20260507174508 17 328 1.6 11.3 0.00 0.56 0.13 36 1009.4
20260507173009 16 231 3.2 8.0 0.00 0.56 0.13 1009.6
20260507171506 16 12 6.4 11.3 0.00 0.56 0.13 38 1010.0
20260507170013 17 239 1.6 6.4 0.00 0.58 0.13 40 1010.3
20260507164522 16 191 1.6 8.0 0.00 0.61 0.13 45 1010.5
20260507163003 16 19 4.8 12.9 0.00 0.66 0.13 42 1010.7
20260507161503 16 9 1.6 9.7 0.00 0.66 0.13 44 1010.7
20260507160007 15 15 1.6 16.1 0.00 0.69 0.13 45 1010.9
20260507154511 15 192 3.2 11.3 0.00 0.71 0.13 45 1011.0
20260507153015 15 221 1.6 9.7 0.00 0.76 0.13 46 1011.4
20260507151504 15 185 1.6 8.0 0.00 0.81 0.13 47 1011.6
20260507150004 14 9 3.2 6.4 0.00 0.91 0.13 49 1011.6
20260507144508 14 338 4.8 8.0 0.00 0.97 0.13 49 1011.9
20260507143020 13 9 1.6 4.8 0.00 1.02 0.13 52 1012.2
20260507141521 13 217 1.6 6.4 0.00 1.07 0.13 61 1012.4
20260507140004 13 9 3.2 12.9 0.00 1.09 0.13 58 1012.4
20260507134507 12 352 1.6 8.0 0.00 1.09 0.13 56 1012.6
20260507133011 12 19 3.2 9.7 0.00 1.12 0.13 59 1012.6
20260507131519 11 202 0.0 11.3 0.00 1.14 0.13 66 1012.4
20260507130027 11 45 0.0 8.0 0.00 1.17 0.13 66 1012.3
20260507124509 11 350 1.6 4.8 0.00 1.17 0.13 67 1012.4
20260507123008 10 20 3.2 11.3 0.00 1.19 0.13 69 1012.4
20260507121516 10 316 3.2 8.0 0.00 1.19 0.13 68 1012.4
20260507120019 10 13 1.6 4.8 0.00 1.19 0.13 73 1012.2
20260507114537 10 277 0.0 3.2 0.00 1.19 0.13 74 1012.2
20260507113023 10 250 0.0 3.2 0.00 1.19 0.13 76 1012.3
20260507111510 9 323 0.0 3.2 0.00 1.19 0.13 80 1012.1
20260507110017 9 195 0.0 3.2 0.00 1.19 0.13 80 1012.0
20260507104532 9 195 0.0 0.0 0.00 1.19 0.13 85 1011.6
20260507103027 9 195 0.0 3.2 0.00 1.19 0.13 83 1011.2
20260507101515 9 195 0.0 3.2 0.00 1.19 0.13 85 1011.1
20260507100017 9 321 0.0 0.0 0.00 1.19 0.13 86 1011.0
20260507094521 9 186 0.0 0.0 0.00 1.19 0.13 89 1010.9
20260507093030 9 186 0.0 0.0 0.00 1.19 0.13 89 1010.8
20260507091531 9 186 0.0 0.0 0.00 1.19 0.13 91 1010.8
20260507090003 9 186 0.0 0.0 0.00 1.19 0.13 91 1010.2
20260507084506 9 186 0.0 0.0 0.00 1.19 0.13 92 1010.2
20260507083004 9 186 0.0 0.0 0.00 1.19 0.13 92 1010.6
20260507081507 9 171 0.0 0.0 0.00 1.19 0.13 92 1010.4
20260507080003 10 171 0.0 0.0 0.00 1.19 0.13 92 1010.6
20260507074504 10 171 0.0 0.0 0.00 1.19 0.13 92 1010.7
20260507073005 10 171 0.0 0.0 0.03 1.19 0.13 93 1010.7
20260507071505 10 171 0.0 0.0 0.03 1.19 0.13 94 1011.0
20260507070011 10 171 0.0 0.0 0.03 1.19 0.13 94 1011.1
20260507064505 10 171 0.0 0.0 0.03 1.19 0.13 94 1011.0
20260507063004 10 171 0.0 0.0 0.03 1.17 0.10 93 1010.9
20260507061504 10 171 0.0 0.0 0.08 1.17 0.10 92 1010.8